Regional Weather Roundup
Issued by NWS

Home | Current Version | Previous Version | Text Only | Print | Product List | Glossary On
Versions: 1 2 3 4 5 6 7 8 9 10 11 12 13 14 15 16 17 18 19 20 21 22 23 24 25 26 27 28 29 30 31 32 33 34 35 36 37 38 39 40 41 42 43 44 45 46 47 48 49 50
000
ASUS43 KTOP 171659
RWRKS

WEATHER ROUNDUP FOR KANSAS
NATIONAL WEATHER SERVICE GOODLAND KS
1100 AM CST SAT FEB 17 2018

NOTE:  "FAIR" INDICATES FEW OR NO CLOUDS BELOW 12,000 FEET WITH NO
SIGNIFICANT WEATHER AND/OR OBSTRUCTIONS TO VISIBILITY.

KSZ001>006-013>018-027>032-041>047-171800-
NORTHWEST KANSAS

CITY           SKY/WX    TMP DP  RH WIND       PRES   REMARKS
GOODLAND       SUNNY     45  16  31 NW25G36   30.10R
HAYS           SUNNY     49  22  34 NW17G25   30.11R
HILL CITY      SUNNY     49  22  34 NW17G25   30.11R
RUSSELL        SUNNY     51  26  37 NW23      30.09R
$$

KSZ061>065-074>080-084>089-171800-
SOUTHWEST KANSAS

CITY           SKY/WX    TMP DP  RH WIND       PRES   REMARKS
DODGE CITY     SUNNY     52  15  23 N25G37    30.11R
GARDEN CITY    SUNNY     50  12  21 N31G43    30.13R
GREAT BEND     SUNNY     49  22  34 NW22G29   30.10R
LIBERAL        SUNNY     50  15  24 N32G44    30.13R
$$

KSZ066>073-081>083-090>101-171800-
SOUTHEAST KANSAS

CITY           SKY/WX    TMP DP  RH WIND       PRES   REMARKS
CHANUTE        PTSUNNY   43  37  79 W13       30.07R
COFFEYVILLE    CLOUDY    43  39  86 W10       30.09S
HUTCHINSON     SUNNY     55  21  26 N18G25    30.06R
MEDICINE LODGE   N/A     54  18  24 N22G33    30.08R
NEWTON         SUNNY     49  22  34 NW21      30.06R
PARSONS        CLOUDY    43  40  89 SW12G21   30.09S
WICHITA INTL   MOSUNNY   51  25  36 NW10G21   30.07R
WICHITA JABRA  SUNNY     50  26  39 NW14      30.07R
WICHITA MCCONL SUNNY     48  25  40 NW10      30.07R
WINFIELD       SUNNY     46  37  71 NW12      30.10R
$$

KSZ007>012-019>026-033>040-048>060-102>105-171800-
NORTHEAST KANSAS

CITY           SKY/WX    TMP DP  RH WIND       PRES   REMARKS
CONCORDIA      SUNNY     46  21  37 NW16G23   30.05R
EMPORIA        SUNNY     47  26  44 W15G24    30.05R
LAWRENCE       SUNNY     45  33  63 W15       30.02R
MANHATTAN      SUNNY     49  22  34 W9        30.04R
OLATHE IND     MOSUNNY   42  35  76 W15G24    30.02R
OLATHE EXE     PTSUNNY   41  34  76 W16G23    30.01S
SALINA         SUNNY     49  23  36 NW17      30.08R
TOPEKA BILLARD SUNNY     47  24  40 NW17G26   30.02R
TOPEKA FORBES  SUNNY     49  26  41 W18       30.02R
$$



USA.gov is the U.S. government's official web portal to all federal, state and local government web resources and services.